Location: Splawn
(30.9202°N, 96.9858°W)
Time: 05:57:44
(UTC+00:00)

Vanguard 1 - Visible Passes

Search period start: 24 February 2020 00:00
Search period end: 05 March 2020 00:00
Orbit: 650 x 3833 km, 34.2° (Epoch: 22 February)

Date Brightness Start Highest point End Pass type
(mag) Time Alt. Az. Time Alt. Az. Time Alt. Az.
24 Feb 13.8 10:44:51 10° SSW 11:04:02 37° SE 11:22:24 10° E visible
25 Feb 14.1 08:52:10 10° SSE 09:00:46 14° SE 09:09:51 10° ESE visible
25 Feb 13.6 11:04:35 10° SSW 11:25:10 46° SE 11:44:33 10° ENE visible
26 Feb 14.0 09:08:17 10° S 09:21:41 21° SE 09:36:11 10° E visible
26 Feb 13.4 11:24:46 10° SW 11:46:23 55° SE 12:06:20 10° ENE visible
27 Feb 13.8 09:26:32 10° S 09:42:32 28° SE 10:00:06 10° E visible
27 Feb 13.3 11:45:20 10° SW 12:07:43 65° SSE 12:27:54 10° ENE visible
28 Feb 13.6 09:47:27 14° SSW 10:03:24 37° SE 10:22:58 10° ENE visible
28 Feb 13.2 12:06:13 10° SW 12:29:12 74° SSE 12:49:21 10° ENE visible
29 Feb 13.9 07:55:25 11° SE 08:01:04 13° SE 08:08:40 10° ESE visible
29 Feb 13.4 10:08:13 17° SSW 10:24:21 46° SE 10:45:15 10° ENE visible
29 Feb 13.1 12:27:25 10° WSW 12:50:49 82° SSE 13:10:43 10° ENE visible
01 Mar 13.7 08:16:04 17° SSE 08:21:42 20° SE 08:35:31 10° E visible
01 Mar 13.2 10:28:50 19° SSW 10:45:25 56° SE 11:07:10 10° ENE visible
02 Mar 13.5 08:36:33 24° SSE 08:42:18 28° SE 08:59:39 10° E visible
02 Mar 13.1 10:49:19 19° SW 11:06:39 65° SSE 11:28:52 10° ENE visible
03 Mar 13.2 08:56:54 31° SSE 09:02:56 36° SE 09:22:40 10° ENE visible
03 Mar 13.0 11:09:39 18° SW 11:28:04 75° SSE 11:50:26 10° ENE visible
04 Mar 14.0 07:04:23 11° ESE 07:04:23 11° ESE 07:05:55 10° ESE visible
04 Mar 13.0 09:17:07 38° S 09:23:41 46° SE 09:45:04 10° ENE visible
04 Mar 13.0 11:29:52 15° WSW 11:49:41 83° SSE 12:11:58 10° ENE visible
